Adana Incirlik AFB, Turkey

10:23 AM +03 on July 26, 2017 (GMT +0300)
Incirlik Air Base

Weather History for LTAG - December, 2013

Change the Weather History Date:

Monday, December 2, 2013

  Actual Average Record
Temperature  
Mean Temperature 60 °F -  
Max Temperature 71 °F 62 °F 77 °F (2010)
Min Temperature 48 °F 45 °F 35 °F (2011)
Degree Days  
Heating Degree Days 6    
Growing Degree Days 10 (Base 50)    
Moisture  
Dew Point 36 °F    
Average Humidity 44    
Maximum Humidity 71    
Minimum Humidity 16    
Precipitation  
Precipitation 0.00 in - - ()
Sea Level Pressure  
Sea Level Pressure 30.07 in    
Wind  
Wind Speed 5 mph ()    
Max Wind Speed 10 mph    
Max Gust Speed -    
Visibility 6.0 miles    
Events      
Averages and records for this station are not official NWS values.
T = Trace of Precipitation, MM = Missing Value Source: Averaged Metar Reports

Daily Weather History Graph

Daily Weather History Graph

Search for Another Location

Airport or City:

Trip Planner

Search our weather history database for the weather conditions in past years. The results will help you decide how hot, cold, wet, or windy it might be!

Date:

Astronomy

Dec. 02, 2013 Rise Set
Actual Time 6:33 AM EET 4:21 PM EET
Civil Twilight 6:05 AM EET 4:50 PM EET
Nautical Twilight 5:32 AM EET 5:22 PM EET
Astronomical Twilight 5:01 AM EET 5:53 PM EET
Moon 5:36 AM EET (12/2) 4:04 PM EET (12/2)
Length of Visible Light 10h 45m
Length of Day
9h 47m
Waning Crescent, 1% of the Moon is Illuminated
Dec 2
Waning Crescent
Dec 3
New
Dec 9
First Quarter
Dec 17
Full
Dec 25
Last Quarter

Hourly Weather History & Observations

Time (EET) Temp. Dew Point Humidity Pressure Visibility Wind Dir Wind Speed Gust Speed Precip Events Conditions
12:20 AM 55.4 °F 32.0 °F 41% 30.18 in - NNW 6.9 mph - N/A   Clear
12:50 AM 55.4 °F 33.8 °F 44% 30.15 in - North 9.2 mph - N/A   Clear
1:20 AM 55.4 °F 32.0 °F 41% 30.15 in - North 8.1 mph - N/A   Clear
1:50 AM 53.6 °F 33.8 °F 47% 30.15 in - NNE 4.6 mph - N/A   Clear
2:00 AM 53 °F 33 °F 35% 30.15 in 6 mi NNE 4.6 mph - -   Clear
2:20 AM 53.6 °F 32.0 °F 44% 30.12 in - ENE 3.5 mph - N/A   Clear
2:50 AM 53.6 °F 32.0 °F 44% 30.12 in - NNW 5.8 mph - N/A   Clear
3:20 AM 57.2 °F 30.2 °F 36% 30.12 in - NNE 5.8 mph - N/A   Clear
3:50 AM 55.4 °F 32.0 °F 41% 30.12 in - North 4.6 mph - N/A   Clear
4:20 AM 57.2 °F 32.0 °F 38% 30.12 in - North 3.5 mph - N/A   Clear
4:50 AM 53.6 °F 35.6 °F 51% 30.12 in - NNW 4.6 mph - N/A   Clear
5:00 AM 53 °F 35 °F 39% 30.13 in 6 mi NNW 4.6 mph - -   Clear
5:20 AM 51.8 °F 37.4 °F 58% 30.12 in - NW 5.8 mph - N/A   Clear
5:50 AM 53.6 °F 35.6 °F 51% 30.12 in - North 2.3 mph - N/A   Clear
6:20 AM 53.6 °F 37.4 °F 54% 30.12 in - West 6.9 mph - N/A   Clear
6:50 AM 53.6 °F 35.6 °F 51% 30.12 in - NNW 4.6 mph - N/A   Clear
7:20 AM 53.6 °F 37.4 °F 54% 30.12 in - NE 6.9 mph - N/A   Clear
7:50 AM 55.4 °F 35.6 °F 47% 30.12 in - North 3.5 mph - N/A   Clear
8:00 AM 56 °F 36 °F 35% 30.13 in 6 mi North 3.5 mph - -   Clear
8:20 AM 57.2 °F 35.6 °F 44% 30.12 in - North 6.9 mph - N/A   Clear
8:50 AM 59.0 °F 37.4 °F 45% 30.12 in - NW 3.5 mph - N/A   Clear
9:20 AM 59.0 °F 39.2 °F 48% 30.12 in - North 3.5 mph - N/A   Clear
9:50 AM 64.4 °F 33.8 °F 32% 30.12 in - SW 2.3 mph - N/A   Clear
10:20 AM 62.6 °F 39.2 °F 42% 30.12 in - North 6.9 mph - N/A   Clear
10:50 AM 66.2 °F 33.8 °F 30% 30.09 in - North 3.5 mph - N/A   Clear
11:00 AM 66 °F 33 °F 19% 30.09 in 6 mi North 3.5 mph - -   Mostly Cloudy
11:20 AM 66.2 °F 33.8 °F 30% 30.06 in - NNE 5.8 mph - N/A   Clear
11:50 AM 66.2 °F 35.6 °F 32% 30.04 in - NNE 9.2 mph - N/A   Clear
12:20 PM 68.0 °F 33.8 °F 28% 30.04 in - ENE 9.2 mph - N/A   Clear
12:50 PM 68.0 °F 33.8 °F 28% 30.04 in - East 9.2 mph - N/A   Clear
1:20 PM 71.6 °F 33.8 °F 25% 30.04 in - ENE 8.1 mph - N/A   Clear
1:50 PM 69.8 °F 33.8 °F 27% 30.01 in - NE 6.9 mph - N/A   Clear
2:00 PM 70 °F 33 °F 16% 30.02 in 6 mi NE 6.9 mph - -   Mostly Cloudy
2:20 PM 69.8 °F 33.8 °F 27% 30.01 in - East 4.6 mph - N/A   Clear
2:50 PM 69.8 °F 35.6 °F 28% 30.01 in - NE 8.1 mph - N/A   Clear
3:20 PM 68.0 °F 35.6 °F 30% 30.01 in - NE 10.4 mph - N/A   Clear
3:50 PM 66.2 °F 35.6 °F 32% 30.01 in - NE 6.9 mph - N/A   Clear
4:20 PM 62.6 °F 35.6 °F 37% 30.01 in - ENE 4.6 mph - N/A   Clear
4:50 PM 60.8 °F 35.6 °F 39% 30.01 in - East 4.6 mph - N/A   Clear
5:00 PM 61 °F 36 °F 28% 30.01 in 6 mi East 4.6 mph - -  
5:20 PM 59.0 °F 37.4 °F 45% 30.01 in - NNE 3.5 mph - N/A   Clear
5:50 PM 57.2 °F 37.4 °F 48% 30.01 in - NNE 4.6 mph - N/A   Clear
6:20 PM 55.4 °F 37.4 °F 51% 30.01 in - NNW 4.6 mph - N/A   Clear
6:50 PM 53.6 °F 37.4 °F 54% 30.01 in - North 3.5 mph - N/A   Clear
7:20 PM 51.8 °F 41.0 °F 67% 30.01 in - NE 4.6 mph - N/A   Clear
7:50 PM 51.8 °F 41.0 °F 67% 30.01 in - NNE 4.6 mph - N/A   Clear
8:00 PM 51 °F 40 °F 57% 30.02 in 6 mi NNE 4.6 mph - -  
8:20 PM 51.8 °F 39.2 °F 62% 30.01 in - NNE 5.8 mph - N/A   Clear
8:50 PM 51.8 °F 39.2 °F 62% 30.01 in - North 2.3 mph - N/A   Clear
9:20 PM 50.0 °F 39.2 °F 66% 30.01 in - NW 2.3 mph - N/A   Clear
9:50 PM 51.8 °F 39.2 °F 62% 30.01 in - WNW 4.6 mph - N/A   Clear
10:20 PM 48.2 °F 39.2 °F 71% 30.01 in - North 4.6 mph - N/A   Clear
10:50 PM 50.0 °F 39.2 °F 66% 30.01 in - North 4.6 mph - N/A   Clear
11:00 PM 50 °F 40 °F 58% 30.03 in 6 mi North 4.6 mph - -  
11:20 PM 53.6 °F 39.2 °F 58% 30.01 in - ENE 3.5 mph - N/A   Clear
11:50 PM 53.6 °F 41.0 °F 62% 30.01 in - NNE 3.5 mph - N/A   Clear